DW6513 Weather Reports


Display with metric or nautical units.
time (UTC)temp
F
wind
direction
speed
MPH
gust
MPH
rain 1hr
in
rain 24hr
in
rain mn
in
humidity
%
barometer
mb
20260506001303 47 107 2.0 3.0 0.00 0.13 0.13 93 1010.8
20260506000803 47 303 1.0 5.0 0.00 0.13 0.13 93 1010.7
20260506000302 48 318 0.0 3.0 0.00 0.13 0.13 93 1010.7
20260505235802 47 123 1.0 0.0 0.00 0.13 0.13 93 1010.7
20260505235305 48 347 1.0 5.0 0.00 0.13 0.13 93 1010.7
20260505234802 48 347 2.0 2.0 0.00 0.13 0.13 92 1009.8
20260505234305 50 347 0.0 0.0 0.00 0.13 0.13 88 1010.0
20260505233304 50 0 0.0 0.0 0.00 0.13 0.13 88 1010.0
20260505223803 50 190 1.0 3.0 0.00 0.13 0.13 87 1010.0
20260505222802 50 77 1.0 6.0 0.00 0.13 0.13 87 1009.5
20260505221803 50 145 1.0 0.0 0.00 0.13 0.13 88 1009.5
20260505221303 49 325 2.0 5.0 0.00 0.13 0.13 88 1009.5
20260505220803 49 325 2.0 5.0 0.00 0.13 0.13 87 1009.9
20260505220303 49 75 2.0 6.0 0.00 0.13 0.13 87 1009.9
20260505215305 49 318 1.0 5.0 0.00 0.13 0.13 87 1009.9
20260505214802 49 123 1.0 0.0 0.00 0.13 0.13 87 1009.6
20260505213802 50 145 0.0 0.0 0.00 0.13 0.13 87 1009.6
20260505213302 50 276 1.0 3.0 0.00 0.13 0.13 88 1009.6
20260505212803 50 303 1.0 3.0 0.00 0.13 0.13 89 1010.3
20260505212305 49 347 1.0 5.0 0.00 0.13 0.13 87 1010.3
20260505211802 49 325 2.0 0.0 0.00 0.13 0.13 87 1010.3
20260505211303 49 356 3.0 6.0 0.00 0.13 0.13 87 1010.3
20260505210302 49 347 2.0 5.0 0.00 0.13 0.13 86 1010.8
20260505205305 49 256 3.0 9.0 0.00 0.13 0.13 85 1010.8
20260505204802 49 303 3.0 9.0 0.00 0.13 0.13 84 1010.4
20260505204303 49 6 3.0 7.0 0.00 0.13 0.13 83 1010.4
20260505203803 50 325 3.0 5.0 0.00 0.13 0.13 82 1010.4
20260505203302 50 340 2.0 8.0 0.00 0.13 0.13 82 1010.4
20260505202802 50 303 1.0 8.0 0.00 0.13 0.13 82 1011.0
20260505202306 50 123 1.0 5.0 0.00 0.13 0.13 82 1011.0
20260505201803 50 145 1.0 0.0 0.00 0.13 0.13 81 1011.0
20260505201302 50 331 2.0 3.0 0.00 0.13 0.13 80 1011.0
20260505200803 50 10 3.0 5.0 0.00 0.13 0.13 79 1011.0
20260505200302 50 347 3.0 5.0 0.00 0.13 0.13 78 1011.0
20260505195803 51 77 6.0 5.0 0.00 0.13 0.13 78 1011.0
20260505195305 50 347 7.0 15.0 0.00 0.13 0.13 78 1011.0
20260505194803 51 325 6.0 8.0 0.00 0.13 0.13 78 1011.0
20260505194302 51 186 6.0 13.0 0.00 0.13 0.13 77 1011.0
20260505193803 51 347 6.0 13.0 0.00 0.13 0.13 77 1011.0
20260505192803 53 257 2.0 16.0 0.00 0.13 0.13 75 1010.1
20260505192305 53 331 2.0 5.0 0.00 0.13 0.13 74 1010.1
20260505191803 53 167 3.0 5.0 0.00 0.16 0.13 74 1010.1
20260505191303 53 234 6.0 8.0 0.00 0.16 0.13 73 1010.1
20260505190803 53 347 5.0 10.0 0.00 0.16 0.13 72 1010.0
20260505190302 54 243 2.0 10.0 0.00 0.16 0.13 72 1010.0
20260505185305 54 53 2.0 3.0 0.00 0.16 0.13 74 1010.0
20260505184802 54 190 2.0 2.0 0.00 0.16 0.13 74 1010.4
20260505184302 54 58 2.0 8.0 0.00 0.16 0.13 74 1010.4
20260505183803 54 303 1.0 6.0 0.00 0.16 0.13 74 1010.4
20260505183303 54 340 1.0 6.0 0.00 0.16 0.13 74 1010.4
20260505182803 54 257 1.0 2.0 0.00 0.16 0.13 75 1011.0
20260505182305 53 232 2.0 5.0 0.00 0.16 0.13 75 1011.0
20260505181302 53 347 5.0 12.0 0.00 0.16 0.13 74 1011.0
20260505180303 54 359 5.0 13.0 0.00 0.16 0.13 74 1010.8
20260505175803 54 10 4.0 9.0 0.00 0.16 0.13 73 1010.8
20260505175305 54 336 3.0 9.0 0.00 0.16 0.13 73 1010.8
20260505174803 55 347 2.0 6.0 0.00 0.16 0.13 73 1010.5
20260505174303 55 301 1.0 6.0 0.00 0.16 0.13 73 1010.5
20260505173802 55 190 1.0 3.0 0.00 0.16 0.13 72 1010.5
20260505173303 55 123 1.0 0.0 0.00 0.16 0.13 72 1010.5
20260505172802 55 190 2.0 0.0 0.00 0.16 0.13 70 1010.3
20260505172305 55 10 2.0 6.0 0.00 0.16 0.13 70 1010.3
20260505171802 56 257 1.0 6.0 0.00 0.16 0.13 70 1010.3
20260505171303 56 271 1.0 3.0 0.00 0.16 0.13 71 1010.3
20260505170803 56 123 1.0 2.0 0.00 0.16 0.13 70 1009.8
20260505170303 57 208 1.0 0.0 0.00 0.16 0.13 69 1009.8
20260505165803 57 303 1.0 5.0 0.00 0.16 0.13 69 1009.8
20260505165306 57 208 0.0 5.0 0.00 0.16 0.13 69 1009.8
20260505164803 57 145 1.0 0.0 0.00 0.16 0.13 68 1010.0
20260505163302 57 160 1.0 6.0 0.00 0.16 0.13 68 1010.0
20260505162803 57 347 1.0 2.0 0.00 0.16 0.13 68 1010.3
20260505162305 57 142 1.0 3.0 0.00 0.16 0.13 69 1010.3
20260505161802 57 347 1.0 3.0 0.00 0.16 0.13 68 1010.3
20260505161303 57 258 1.0 0.0 0.00 0.16 0.13 68 1010.3
20260505160803 57 145 2.0 5.0 0.00 0.16 0.13 69 1009.8
20260505160303 57 103 2.0 7.0 0.00 0.16 0.13 69 1009.8
20260505153303 56 121 2.0 8.0 0.00 0.16 0.13 73 1009.6
20260505152803 56 325 1.0 8.0 0.00 0.16 0.13 76 1009.4
20260505152305 56 167 2.0 3.0 0.00 0.16 0.13 77 1009.4
20260505151803 54 33 3.0 8.0 0.00 0.16 0.13 76 1009.4
20260505151303 55 334 2.0 8.0 0.00 0.16 0.13 77 1009.4
20260505150803 54 145 2.0 7.0 0.00 0.16 0.13 78 1009.7
20260505150302 54 116 2.0 3.0 0.00 0.16 0.13 78 1009.7
20260505140304 52 210 1.0 7.0 0.00 0.16 0.13 91 1009.3
20260505130303 50 133 2.0 2.0 0.03 0.16 0.13 88 1010.5
20260505124303 51 327 5.0 12.0 0.10 0.16 0.13 88 1010.3
20260505123803 51 303 5.0 12.0 0.10 0.16 0.13 88 1010.3
20260505123303 51 214 5.0 5.0 0.10 0.16 0.13 88 1010.3
20260505122803 51 325 6.0 9.0 0.10 0.16 0.13 88 1010.4
20260505122305 51 31 6.0 12.0 0.10 0.16 0.13 88 1010.4
20260505121802 51 347 6.0 8.0 0.10 0.16 0.13 88 1010.4
20260505121303 52 347 6.0 14.0 0.10 0.16 0.13 87 1010.4
20260505120803 52 33 5.0 8.0 0.06 0.13 0.10 85 1009.9
20260505115803 53 190 3.0 6.0 0.06 0.13 0.10 85 1009.9
20260505115305 53 5 2.0 5.0 0.06 0.13 0.10 82 1009.9
20260505114803 54 145 2.0 7.0 0.00 0.06 0.03 81 1008.6
20260505113803 55 213 3.0 7.0 0.00 0.06 0.03 80 1008.6
20260505113304 55 123 3.0 7.0 0.00 0.06 0.03 80 1008.6
20260505112803 55 10 3.0 7.0 0.00 0.06 0.03 79 1007.7
20260505112305 55 347 3.0 9.0 0.00 0.06 0.03 79 1007.7
20260505110804 56 303 5.0 21.0 0.00 0.06 0.03 81 1008.1
20260505110303 56 13 5.0 6.0 0.00 0.06 0.03 82 1008.1
20260505101304 59 339 5.0 7.0 0.03 0.06 0.03 87 1007.2
20260505100803 60 347 6.0 10.0 0.03 0.06 0.03 87 1006.7
20260505100304 60 324 5.0 6.0 0.03 0.06 0.03 85 1006.7
20260505095803 60 347 5.0 6.0 0.03 0.06 0.03 84 1006.7
20260505095304 61 311 3.0 12.0 0.00 0.03 0.00 83 1006.7
20260505094303 62 349 2.0 9.0 0.00 0.03 0.00 83 1005.7
20260505093803 62 347 0.0 2.0 0.00 0.03 0.00 81 1005.7
20260505093303 62 289 0.0 0.0 0.00 0.03 0.00 80 1005.7
20260505092803 62 303 0.0 0.0 0.00 0.03 0.00 79 1005.7
20260505092305 62 336 0.0 0.0 0.00 0.03 0.00 78 1005.7
20260505091806 62 303 0.0 0.0 0.00 0.03 0.00 77 1005.7
20260505090303 63 262 0.0 0.0 0.00 0.03 0.00 74 1005.4
20260505085803 63 303 0.0 0.0 0.00 0.03 0.00 73 1005.4
20260505084804 63 145 0.0 0.0 0.00 0.03 0.00 72 1005.7
20260505084303 63 155 0.0 0.0 0.00 0.03 0.00 72 1005.7
20260505083303 63 207 0.0 0.0 0.00 0.03 0.00 70 1005.7
20260505082304 64 167 0.0 0.0 0.00 0.03 0.00 65 1005.7
20260505081803 65 303 0.0 0.0 0.00 0.03 0.00 64 1005.7
20260505080804 66 167 0.0 0.0 0.00 0.03 0.00 59 1006.1
20260505080304 67 317 0.0 0.0 0.00 0.03 0.00 56 1006.1
20260505075803 67 257 0.0 0.0 0.00 0.03 0.00 56 1006.1
20260505075304 67 327 0.0 3.0 0.00 0.03 0.00 56 1006.1
20260505074804 67 347 0.0 0.0 0.00 0.03 0.00 56 1006.0
20260505074303 67 303 0.0 0.0 0.00 0.03 0.00 55 1006.0
20260505073804 68 347 1.0 0.0 0.00 0.03 0.00 55 1006.0
20260505073303 68 267 1.0 5.0 0.00 0.03 0.00 56 1006.0
20260505072803 68 257 1.0 5.0 0.00 0.03 0.00 56 1006.5
20260505072305 68 90 1.0 2.0 0.00 0.03 0.00 56 1006.5
20260505071303 69 347 5.0 6.0 0.00 0.03 0.00 57 1006.5
20260505070804 69 347 6.0 13.0 0.00 0.03 0.00 56 1005.4
20260505070303 70 167 6.0 14.0 0.00 0.03 0.00 58 1005.4
20260505065804 70 55 5.0 10.0 0.00 0.03 0.00 59 1005.4
20260505065304 69 347 5.0 10.0 0.00 0.03 0.00 59 1005.4
20260505064803 69 145 5.0 10.0 0.00 0.03 0.00 59 1004.6
20260505064303 69 145 6.0 12.0 0.00 0.03 0.00 59 1004.6
20260505063804 70 145 5.0 6.0 0.00 0.03 0.00 59 1004.6
20260505062804 70 145 5.0 9.0 0.00 0.03 0.00 58 1005.0
20260505062304 70 163 5.0 9.0 0.00 0.03 0.00 58 1005.0
20260505061804 70 145 5.0 7.0 0.00 0.03 0.00 58 1005.0
20260505061304 70 145 6.0 6.0 0.00 0.03 0.00 58 1005.0
20260505060804 70 303 5.0 7.0 0.00 0.03 0.00 58 1004.5
20260505060303 70 137 5.0 9.0 0.00 0.03 0.00 57 1004.5
20260505055804 70 145 5.0 6.0 0.00 0.03 0.00 57 1004.5
20260505054304 71 155 6.0 9.0 0.00 0.03 0.00 56 1004.1
20260505053804 71 145 7.0 9.0 0.00 0.03 0.00 56 1004.1
20260505053304 71 145 8.0 8.0 0.00 0.03 0.00 56 1004.1
20260505052804 71 167 7.0 12.0 0.00 0.03 0.00 56 1003.8
20260505052304 71 166 8.0 10.0 0.00 0.03 0.00 56 1003.8
20260505051803 71 213 8.0 15.0 0.00 0.03 0.00 56 1003.8
20260505051304 71 145 8.0 15.0 0.00 0.03 0.00 56 1003.8
20260505050822 71 145 8.0 12.0 0.00 0.03 0.00 55 1003.9
20260505050304 71 156 7.0 12.0 0.00 0.03 0.00 56 1003.9
20260505040803 72 145 6.0 10.0 0.00 0.03 0.03 54 1003.7
20260505040304 72 179 6.0 10.0 0.00 0.03 0.03 55 1003.7
20260505035803 72 145 6.0 15.0 0.00 0.03 0.03 54 1003.7
20260505034804 72 280 6.0 9.0 0.00 0.03 0.03 54 1003.9
20260505034303 72 145 5.0 9.0 0.00 0.03 0.03 54 1003.9
20260505033803 72 145 5.0 6.0 0.00 0.03 0.03 54 1003.9
20260505033303 73 145 5.0 8.0 0.00 0.03 0.03 54 1003.9
20260505032804 73 145 5.0 8.0 0.00 0.03 0.03 53 1003.9
20260505032304 73 101 5.0 8.0 0.00 0.03 0.03 52 1003.9
20260505031803 73 145 7.0 8.0 0.00 0.03 0.03 52 1003.9
20260505031304 73 145 7.0 12.0 0.00 0.03 0.03 52 1003.9
20260505030304 74 145 5.0 8.0 0.00 0.03 0.03 51 1003.6
20260505025803 74 145 5.0 7.0 0.00 0.03 0.03 51 1003.6
20260505024804 74 145 5.0 5.0 0.00 0.03 0.03 51 1003.0
20260505024304 74 230 5.0 7.0 0.00 0.03 0.03 51 1003.0
20260505023803 74 257 3.0 8.0 0.00 0.03 0.03 51 1003.0
20260505023304 74 141 3.0 6.0 0.00 0.03 0.03 50 1003.0
20260505022803 74 167 5.0 8.0 0.00 0.03 0.03 50 1002.7
20260505012803 75 167 6.0 8.0 0.00 0.03 0.03 49 1003.8
20260505012304 75 145 5.0 12.0 0.00 0.03 0.03 50 1003.8
20260505011805 75 123 4.0 9.0 0.00 0.03 0.03 50 1003.8
20260505010804 75 167 2.0 2.0 0.00 0.03 0.03 50 1003.2
20260505010304 76 178 3.0 6.0 0.00 0.03 0.03 49 1003.2
20260505005804 76 167 6.0 8.0 0.00 0.03 0.03 48 1003.2
20260505005304 76 145 6.0 8.0 0.00 0.03 0.03 48 1003.2
20260505004803 77 145 6.0 9.0 0.00 0.03 0.03 47 1003.2
20260505004304 77 145 5.0 9.0 0.00 0.03 0.03 47 1003.2
20260505003804 77 145 5.0 9.0 0.00 0.03 0.03 47 1003.2
20260505003304 77 160 7.0 9.0 0.00 0.03 0.03 47 1003.2
20260505002803 78 145 7.0 12.0 0.00 0.03 0.03 46 1002.9
20260505002304 78 152 7.0 12.0 0.00 0.03 0.03 46 1002.9
20260505001811 78 145 6.0 10.0 0.00 0.03 0.03 46 1002.9